User: anonymous   Login
Location: Nirvana
(45.0297°N, 77.2628°W)
Time: 06:20:02
(UTC-04:00)
Language:

H-2A R/B - Orbit

View from above orbital plane
View from above orbital plane
View from above satellite
View from above satellite

Ground track
Ground track

The orbit data is extracted from the following two-line orbital elements,

1 27601U 02056E   17116.84313896 +.00000064 +00000-0 +38471-4 0  9994
2 27601 098.3799 186.4037 0073432 087.9216 045.6609 14.31776146750466
Epoch (UTC): 26 April 2017 20:14:07
Eccentricity: 0.0073432
inclination: 98.3799°
perigee height: 733 km
apogee height: 838 km
right ascension of ascending node: 186.4037°
argument of perigee: 87.9216°
revolutions per day: 14.31776146
mean anomaly at epoch: 45.6609°
orbit number at epoch: 75046

The dashed part of the orbit path shows where the satellite is in the earth's shadow,  

DLR